Time,TemperatureF,DewpointF,PressureIn,WindDirection,WindDirectionDegrees,WindSpeedMPH,WindSpeedGustMPH,Humidity,HourlyPrecipIn,Conditions,Clouds,dailyrainin,SoftwareType,DateUTC
2013-02-12 00:01:00,37.0,36.0,29.66,West,260,0.0,1.0,96,0.00,,,0.28,,2013-02-12 05:01:00,
2013-02-12 00:11:00,36.0,35.0,29.66,West,260,0.0,2.0,96,0.00,,,0.28,,2013-02-12 05:11:00,
2013-02-12 00:21:00,36.0,35.0,29.66,West,260,0.0,2.0,96,0.00,,,0.28,,2013-02-12 05:21:00,
2013-02-12 00:32:00,36.0,35.0,29.67,NNW,327,3.0,6.0,97,0.00,,,0.28,,2013-02-12 05:32:00,
2013-02-12 00:42:00,36.0,35.0,29.67,NNW,327,3.0,6.0,97,0.00,,,0.28,,2013-02-12 05:42:00,
2013-02-12 00:52:00,38.0,37.0,29.68,West,261,3.0,13.0,97,0.00,,,0.28,,2013-02-12 05:52:00,
2013-02-12 01:01:00,38.0,36.0,29.68,NW,312,6.0,13.0,92,0.00,,,0.28,,2013-02-12 06:01:00,
2013-02-12 01:12:00,38.0,31.0,29.68,NW,324,3.0,29.0,77,0.00,,,0.28,,2013-02-12 06:12:00,
2013-02-12 01:22:00,38.0,31.0,29.68,NW,324,3.0,29.0,77,0.00,,,0.28,,2013-02-12 06:22:00,
2013-02-12 01:32:00,38.0,30.0,29.67,NW,307,4.0,13.0,72,0.00,,,0.28,,2013-02-12 06:32:00,
2013-02-12 01:42:00,38.0,29.0,29.67,WNW,295,1.0,15.0,71,0.00,,,0.28,,2013-02-12 06:42:00,
2013-02-12 01:52:00,38.0,29.0,29.67,WNW,295,1.0,15.0,71,0.00,,,0.28,,2013-02-12 06:52:00,
2013-02-12 02:01:00,38.0,29.0,29.68,WNW,292,3.0,14.0,70,0.00,,,0.28,,2013-02-12 07:01:00,
2013-02-12 02:11:00,37.0,28.0,29.70,WNW,300,6.0,13.0,69,0.00,,,0.28,,2013-02-12 07:11:00,
2013-02-12 02:21:00,37.0,28.0,29.70,WNW,300,6.0,13.0,69,0.00,,,0.28,,2013-02-12 07:21:00,
2013-02-12 02:32:00,37.0,28.0,29.71,NNW,328,5.0,13.0,69,0.00,,,0.28,,2013-02-12 07:32:00,
2013-02-12 02:42:00,37.0,28.0,29.71,NNW,328,5.0,13.0,69,0.00,,,0.28,,2013-02-12 07:42:00,
2013-02-12 02:52:00,37.0,28.0,29.71,NW,314,5.0,17.0,69,0.00,,,0.28,,2013-02-12 07:52:00,
2013-02-12 03:01:00,37.0,27.0,29.70,WNW,298,11.0,21.0,67,0.00,,,0.28,,2013-02-12 08:01:00,
2013-02-12 03:11:00,37.0,27.0,29.70,WNW,298,11.0,21.0,67,0.00,,,0.28,,2013-02-12 08:11:00,
2013-02-12 03:21:00,38.0,28.0,29.70,WNW,293,3.0,20.0,66,0.00,,,0.28,,2013-02-12 08:21:00,
2013-02-12 03:32:00,37.0,27.0,29.70,NNW,329,3.0,14.0,67,0.00,,,0.28,,2013-02-12 08:32:00,
2013-02-12 03:42:00,37.0,27.0,29.70,NNW,329,3.0,14.0,67,0.00,,,0.28,,2013-02-12 08:42:00,
2013-02-12 03:52:00,37.0,27.0,29.71,WNW,284,2.0,12.0,67,0.00,,,0.28,,2013-02-12 08:52:00,
2013-02-12 04:02:00,37.0,27.0,29.72,WNW,286,5.0,14.0,67,0.00,,,0.28,,2013-02-12 09:02:00,
2013-02-12 04:11:00,37.0,27.0,29.73,WNW,294,2.0,11.0,67,0.00,,,0.28,,2013-02-12 09:11:00,
2013-02-12 04:21:00,37.0,27.0,29.73,WNW,294,2.0,11.0,67,0.00,,,0.28,,2013-02-12 09:21:00,
2013-02-12 04:32:00,37.0,27.0,29.72,West,270,3.0,11.0,68,0.00,,,0.28,,2013-02-12 09:32:00,
2013-02-12 04:42:00,37.0,27.0,29.73,WSW,255,5.0,11.0,67,0.00,,,0.28,,2013-02-12 09:42:00,
2013-02-12 04:52:00,37.0,27.0,29.73,WSW,255,5.0,11.0,67,0.00,,,0.28,,2013-02-12 09:52:00,
2013-02-12 05:01:00,37.0,27.0,29.74,WNW,296,4.0,13.0,67,0.00,,,0.28,,2013-02-12 10:01:00,
2013-02-12 05:11:00,37.0,27.0,29.74,NW,309,6.0,11.0,67,0.00,,,0.28,,2013-02-12 10:11:00,
2013-02-12 05:21:00,37.0,27.0,29.74,NW,309,6.0,11.0,67,0.00,,,0.28,,2013-02-12 10:21:00,
2013-02-12 05:32:00,37.0,27.0,29.74,NNW,331,5.0,12.0,67,0.00,,,0.28,,2013-02-12 10:32:00,
2013-02-12 05:43:00,37.0,27.0,29.74,NNW,331,5.0,12.0,67,0.00,,,0.28,,2013-02-12 10:43:00,
2013-02-12 05:52:00,37.0,27.0,29.74,West,262,1.0,12.0,67,0.00,,,0.28,,2013-02-12 10:52:00,
2013-02-12 06:01:00,37.0,27.0,29.74,WNW,300,4.0,13.0,67,0.00,,,0.28,,2013-02-12 11:01:00,
2013-02-12 06:11:00,37.0,27.0,29.74,NNW,339,4.0,13.0,67,0.00,,,0.28,,2013-02-12 11:11:00,
2013-02-12 06:22:00,37.0,27.0,29.74,NNW,339,4.0,13.0,67,0.00,,,0.28,,2013-02-12 11:22:00,
2013-02-12 06:32:00,37.0,27.0,29.75,NNW,335,2.0,11.0,67,0.00,,,0.28,,2013-02-12 11:32:00,
2013-02-12 06:42:00,37.0,27.0,29.75,NNW,335,2.0,11.0,67,0.00,,,0.28,,2013-02-12 11:42:00,
2013-02-12 06:52:00,37.0,27.0,29.76,West,270,6.0,12.0,66,0.00,,,0.28,,2013-02-12 11:52:00,
2013-02-12 07:01:00,36.0,26.0,29.76,West,267,2.0,12.0,67,0.00,,,0.28,,2013-02-12 12:01:00,
2013-02-12 07:11:00,36.0,26.0,29.76,WNW,282,4.0,12.0,67,0.00,,,0.28,,2013-02-12 12:11:00,
2013-02-12 07:21:00,36.0,26.0,29.76,WNW,282,4.0,12.0,67,0.00,,,0.28,,2013-02-12 12:21:00,
2013-02-12 07:32:00,36.0,26.0,29.76,NW,321,5.0,11.0,67,0.00,,,0.28,,2013-02-12 12:32:00,
2013-02-12 07:42:00,36.0,26.0,29.78,WNW,296,1.0,6.0,67,0.00,,,0.28,,2013-02-12 12:42:00,
2013-02-12 07:52:00,36.0,26.0,29.78,WNW,296,1.0,6.0,67,0.00,,,0.28,,2013-02-12 12:52:00,
2013-02-12 08:01:00,36.0,26.0,29.78,West,277,5.0,14.0,67,0.00,,,0.28,,2013-02-12 13:01:00,
2013-02-12 08:11:00,37.0,27.0,29.78,WNW,287,4.0,7.0,67,0.00,,,0.28,,2013-02-12 13:11:00,
2013-02-12 08:22:00,37.0,27.0,29.78,WNW,287,4.0,7.0,67,0.00,,,0.28,,2013-02-12 13:22:00,
2013-02-12 08:32:00,37.0,26.0,29.78,WNW,289,3.0,12.0,65,0.00,,,0.28,,2013-02-12 13:32:00,
2013-02-12 08:42:00,37.0,26.0,29.78,WNW,289,3.0,12.0,65,0.00,,,0.28,,2013-02-12 13:42:00,
2013-02-12 08:52:00,37.0,26.0,29.79,NNW,343,5.0,15.0,64,0.00,,,0.28,,2013-02-12 13:52:00,
2013-02-12 09:01:00,38.0,27.0,29.79,NW,304,6.0,16.0,63,0.00,,,0.28,,2013-02-12 14:01:00,
2013-02-12 09:12:00,38.0,27.0,29.79,NW,304,6.0,16.0,63,0.00,,,0.28,,2013-02-12 14:12:00,
2013-02-12 09:21:00,38.0,27.0,29.79,West,277,5.0,19.0,63,0.00,,,0.28,,2013-02-12 14:21:00,
2013-02-12 09:32:00,38.0,27.0,29.80,NNW,340,4.0,21.0,63,0.00,,,0.28,,2013-02-12 14:32:00,
2013-02-12 09:42:00,38.0,27.0,29.80,NNW,340,4.0,21.0,63,0.00,,,0.28,,2013-02-12 14:42:00,
2013-02-12 09:52:00,38.0,26.0,29.80,WNW,296,6.0,15.0,62,0.00,,,0.28,,2013-02-12 14:52:00,
2013-02-12 10:02:00,39.0,27.0,29.81,NNW,329,8.0,14.0,61,0.00,,,0.28,,2013-02-12 15:02:00,
2013-02-12 10:11:00,39.0,27.0,29.80,NW,324,5.0,19.0,61,0.00,,,0.25,,2013-02-12 15:11:00,
2013-02-12 10:21:00,39.0,27.0,29.80,NW,324,5.0,19.0,61,0.00,,,0.25,,2013-02-12 15:21:00,
2013-02-12 10:32:00,39.0,26.0,29.82,NNW,327,5.0,16.0,60,0.00,,,0.25,,2013-02-12 15:32:00,
2013-02-12 10:42:00,39.0,26.0,29.82,NNW,327,5.0,16.0,60,0.00,,,0.25,,2013-02-12 15:42:00,
2013-02-12 10:52:00,39.0,27.0,29.82,West,280,7.0,14.0,61,0.00,,,0.25,,2013-02-12 15:52:00,
2013-02-12 11:01:00,38.0,26.0,29.82,NW,325,4.0,18.0,61,0.00,,,0.25,,2013-02-12 16:01:00,
2013-02-12 11:11:00,38.0,26.0,29.82,NW,325,4.0,18.0,61,0.00,,,0.25,,2013-02-12 16:11:00,
2013-02-12 11:22:00,38.0,26.0,29.83,West,273,11.0,16.0,61,0.00,,,0.03,,2013-02-12 16:22:00,
2013-02-12 11:32:00,39.0,27.0,29.84,WNW,287,6.0,11.0,61,0.00,,,0.03,,2013-02-12 16:32:00,
2013-02-12 11:42:00,39.0,27.0,29.84,WNW,287,6.0,11.0,61,0.00,,,0.03,,2013-02-12 16:42:00,
2013-02-12 11:52:00,39.0,26.0,29.84,NNE,16,9.0,17.0,60,0.00,,,0.03,,2013-02-12 16:52:00,
2013-02-12 12:01:00,39.0,27.0,29.84,NW,322,1.0,12.0,61,0.00,,,0.03,,2013-02-12 17:01:00,
2013-02-12 12:12:00,39.0,27.0,29.85,WNW,296,7.0,14.0,61,0.00,,,0.01,,2013-02-12 17:12:00,
2013-02-12 12:21:00,39.0,27.0,29.85,WNW,296,7.0,14.0,61,0.00,,,0.01,,2013-02-12 17:21:00,
2013-02-12 12:32:00,39.0,27.0,29.85,WNW,284,1.0,10.0,62,0.00,,,0.01,,2013-02-12 17:32:00,
2013-02-12 12:42:00,39.0,27.0,29.85,WNW,284,1.0,10.0,62,0.00,,,0.01,,2013-02-12 17:42:00,
2013-02-12 12:52:00,39.0,26.0,29.85,NNW,333,8.0,16.0,60,0.00,,,0.01,,2013-02-12 17:52:00,
2013-02-12 13:01:00,39.0,26.0,29.84,WNW,300,8.0,17.0,60,0.00,,,0.01,,2013-02-12 18:01:00,
2013-02-12 13:11:00,39.0,26.0,29.84,NW,304,4.0,17.0,60,0.00,,,0.01,,2013-02-12 18:11:00,
2013-02-12 13:23:00,39.0,26.0,29.84,NW,304,4.0,17.0,60,0.00,,,0.01,,2013-02-12 18:23:00,
2013-02-12 13:32:00,40.0,26.0,29.84,NE,34,6.0,14.0,58,0.00,,,0.01,,2013-02-12 18:32:00,
2013-02-12 13:41:00,40.0,26.0,29.84,NNW,337,4.0,17.0,57,0.00,,,0.01,,2013-02-12 18:41:00,
2013-02-12 13:52:00,40.0,26.0,29.84,NNW,337,4.0,17.0,57,0.00,,,0.01,,2013-02-12 18:52:00,
2013-02-12 14:02:00,39.0,25.0,29.84,NW,310,7.0,16.0,58,0.00,,,0.01,,2013-02-12 19:02:00,
2013-02-12 14:11:00,39.0,26.0,29.84,NW,311,3.0,7.0,60,0.00,,,0.01,,2013-02-12 19:11:00,
2013-02-12 14:21:00,39.0,26.0,29.84,NW,311,3.0,7.0,60,0.00,,,0.01,,2013-02-12 19:21:00,
2013-02-12 14:31:00,39.0,27.0,29.84,WNW,287,4.0,10.0,61,0.00,,,0.01,,2013-02-12 19:31:00,
2013-02-12 14:41:00,39.0,27.0,29.84,WNW,303,2.0,16.0,61,0.00,,,0.01,,2013-02-12 19:41:00,
2013-02-12 14:52:00,39.0,27.0,29.84,WNW,303,2.0,16.0,61,0.00,,,0.01,,2013-02-12 19:52:00,
2013-02-12 15:01:00,39.0,26.0,29.83,WNW,298,5.0,12.0,60,0.00,,,0.01,,2013-02-12 20:01:00,
2013-02-12 15:11:00,39.0,26.0,29.83,WNW,296,3.0,16.0,60,0.00,,,0.00,,2013-02-12 20:11:00,
2013-02-12 15:21:00,39.0,26.0,29.83,WNW,296,3.0,16.0,60,0.00,,,0.00,,2013-02-12 20:21:00,
2013-02-12 15:32:00,39.0,26.0,29.83,NNW,334,4.0,12.0,60,0.00,,,0.00,,2013-02-12 20:32:00,
2013-02-12 15:41:00,38.0,26.0,29.84,WNW,283,5.0,10.0,61,0.00,,,0.00,,2013-02-12 20:41:00,
2013-02-12 15:52:00,38.0,26.0,29.84,WNW,283,5.0,10.0,61,0.00,,,0.00,,2013-02-12 20:52:00,
2013-02-12 16:01:00,38.0,26.0,29.84,NW,306,3.0,12.0,61,0.00,,,0.00,,2013-02-12 21:01:00,
2013-02-12 16:11:00,38.0,26.0,29.80,WNW,293,1.0,6.0,62,0.00,,,0.00,,2013-02-12 21:11:00,
2013-02-12 16:21:00,38.0,26.0,29.80,WNW,293,1.0,6.0,62,0.00,,,0.00,,2013-02-12 21:21:00,
2013-02-12 16:31:00,37.0,26.0,29.78,WNW,294,1.0,11.0,63,0.00,,,0.00,,2013-02-12 21:31:00,
2013-02-12 16:42:00,37.0,26.0,29.78,WNW,290,2.0,7.0,63,0.00,,,0.00,,2013-02-12 21:42:00,
2013-02-12 16:52:00,37.0,26.0,29.78,WNW,290,2.0,7.0,63,0.00,,,0.00,,2013-02-12 21:52:00,
2013-02-12 17:01:00,37.0,26.0,29.82,WSW,249,3.0,7.0,64,0.00,,,0.00,,2013-02-12 22:01:00,
2013-02-12 17:12:00,37.0,26.0,29.83,West,278,6.0,12.0,63,0.00,,,0.00,,2013-02-12 22:12:00,
2013-02-12 17:21:00,37.0,26.0,29.83,West,278,6.0,12.0,63,0.00,,,0.00,,2013-02-12 22:21:00,
2013-02-12 17:32:00,37.0,26.0,29.84,West,275,2.0,8.0,65,0.00,,,0.00,,2013-02-12 22:32:00,
2013-02-12 17:42:00,36.0,25.0,29.89,West,273,5.0,10.0,65,0.00,,,0.00,,2013-02-12 22:42:00,
2013-02-12 17:52:00,36.0,25.0,29.89,West,273,5.0,10.0,65,0.00,,,0.00,,2013-02-12 22:52:00,
2013-02-12 18:01:00,36.0,25.0,29.88,West,280,2.0,10.0,65,0.00,,,0.00,,2013-02-12 23:01:00,
2013-02-12 18:11:00,36.0,25.0,29.92,WSW,253,6.0,12.0,64,0.00,,,0.00,,2013-02-12 23:11:00,
2013-02-12 18:21:00,36.0,25.0,29.92,WSW,253,6.0,12.0,64,0.00,,,0.00,,2013-02-12 23:21:00,
2013-02-12 18:32:00,36.0,25.0,29.90,WNW,303,4.0,7.0,64,0.00,,,0.00,,2013-02-12 23:32:00,
2013-02-12 18:42:00,36.0,25.0,29.90,WNW,303,4.0,7.0,64,0.00,,,0.00,,2013-02-12 23:42:00,
2013-02-12 18:52:00,36.0,25.0,29.91,West,278,2.0,10.0,63,0.00,,,0.00,,2013-02-12 23:52:00,
2013-02-12 19:02:00,36.0,25.0,29.90,NW,317,4.0,11.0,64,0.00,,,0.00,,2013-02-13 00:02:00,
2013-02-12 19:11:00,36.0,25.0,29.90,NW,317,4.0,11.0,64,0.00,,,0.00,,2013-02-13 00:11:00,
2013-02-12 19:21:00,36.0,25.0,29.90,NW,324,1.0,7.0,64,0.00,,,0.00,,2013-02-13 00:21:00,
2013-02-12 19:32:00,36.0,25.0,29.90,NW,310,4.0,10.0,64,0.00,,,0.00,,2013-02-13 00:32:00,
2013-02-12 19:42:00,36.0,25.0,29.90,NW,310,4.0,10.0,64,0.00,,,0.00,,2013-02-13 00:42:00,
2013-02-12 19:52:00,36.0,25.0,29.90,WNW,296,3.0,13.0,64,0.00,,,0.00,,2013-02-13 00:52:00,
2013-02-12 20:01:00,35.0,24.0,29.90,NW,306,1.0,8.0,65,0.00,,,0.00,,2013-02-13 01:01:00,
2013-02-12 20:11:00,35.0,24.0,29.90,NW,306,1.0,8.0,65,0.00,,,0.00,,2013-02-13 01:11:00,
2013-02-12 20:21:00,35.0,24.0,29.90,WNW,301,0.0,7.0,65,0.00,,,0.00,,2013-02-13 01:21:00,
2013-02-12 20:31:00,35.0,25.0,29.89,West,273,2.0,5.0,67,0.00,,,0.00,,2013-02-13 01:31:00,
2013-02-12 20:42:00,34.0,25.0,29.88,WNW,302,2.0,5.0,68,0.00,,,0.00,,2013-02-13 01:42:00,
2013-02-12 20:52:00,34.0,25.0,29.88,WNW,302,2.0,5.0,68,0.00,,,0.00,,2013-02-13 01:52:00,
2013-02-12 21:01:00,34.0,25.0,29.87,WSW,252,1.0,3.0,69,0.00,,,0.00,,2013-02-13 02:01:00,
2013-02-12 21:11:00,33.0,24.0,29.87,WSW,253,1.0,4.0,70,0.00,,,0.00,,2013-02-13 02:11:00,
2013-02-12 21:22:00,33.0,24.0,29.87,WSW,253,1.0,4.0,70,0.00,,,0.00,,2013-02-13 02:22:00,
2013-02-12 21:31:00,33.0,25.0,29.87,WSW,254,0.0,3.0,72,0.00,,,0.00,,2013-02-13 02:31:00,
2013-02-12 21:42:00,33.0,25.0,29.87,WSW,254,0.0,3.0,72,0.00,,,0.00,,2013-02-13 02:42:00,
2013-02-12 21:52:00,32.0,24.0,29.85,WSW,253,0.0,1.0,72,0.00,,,0.00,,2013-02-13 02:52:00,
2013-02-12 22:01:00,32.0,24.0,29.86,WSW,254,0.0,2.0,73,0.00,,,0.00,,2013-02-13 03:01:00,
2013-02-12 22:11:00,32.0,24.0,29.86,WSW,254,1.0,3.0,73,0.00,,,0.00,,2013-02-13 03:11:00,
2013-02-12 22:21:00,32.0,24.0,29.86,WSW,254,1.0,3.0,73,0.00,,,0.00,,2013-02-13 03:21:00,
2013-02-12 22:32:00,32.0,24.0,29.85,West,281,1.0,6.0,73,0.00,,,0.00,,2013-02-13 03:32:00,
2013-02-12 22:42:00,32.0,24.0,29.85,West,281,1.0,6.0,73,0.00,,,0.00,,2013-02-13 03:42:00,
2013-02-12 22:52:00,32.0,24.0,29.85,WNW,284,0.0,6.0,72,0.00,,,0.00,,2013-02-13 03:52:00,
2013-02-12 23:01:00,32.0,24.0,29.85,North,355,2.0,4.0,72,0.00,,,0.00,,2013-02-13 04:01:00,
2013-02-12 23:11:00,32.0,24.0,29.85,North,355,2.0,4.0,72,0.00,,,0.00,,2013-02-13 04:11:00,
2013-02-12 23:21:00,32.0,24.0,29.85,WNW,289,2.0,6.0,72,0.00,,,0.00,,2013-02-13 04:21:00,
2013-02-12 23:32:00,32.0,24.0,29.86,WNW,293,0.0,3.0,72,0.00,,,0.00,,2013-02-13 04:32:00,
2013-02-12 23:41:00,32.0,24.0,29.86,West,263,1.0,6.0,73,0.00,,,0.00,,2013-02-13 04:41:00,
2013-02-12 23:52:00,32.0,24.0,29.86,West,263,1.0,6.0,73,0.00,,,0.00,,2013-02-13 04:52:00,